AirNav   Everest Fuels
 
 806 users online  

MS08 Harrell Field Airport
Pisgah, Mississippi, USA

GOING TO PISGAH?


FAA INFORMATION EFFECTIVE 16 JULY 2020

Location

FAA Identifier: MS08
Lat/Long: 32-28-26.0000N 089-51-06.4000W
32-28.433333N 089-51.106667W
32.4738889,-89.8517778
(estimated)
Elevation: 385 ft. / 117 m (estimated)
Variation: 01E (2000)
From city: 1 mile NE of PISGAH, MS
Time zone: UTC -5 (UTC -6 during Standard Time)
Zip code: 39047

Airport Operations

Airport use: Private use. Permission required prior to landing
Activation date: 03/2001
Control tower: no
ARTCC: MEMPHIS CENTER
FSS: GREENWOOD FLIGHT SERVICE STATION
Attendance: UNATNDD
Wind indicator: yes
Segmented circle: no

Airport Communications

WX AWOS-3PT at MBO (13 nm W): 119.125 (601-605-8137)
WX ASOS at JAN (15 nm SW): 121.05 (601-932-2822)

Nearby radio navigation aids

VOR radial/distance  VOR name  Freq  Var
MHZr080/12.8MAGNOLIA VORTAC113.2001W

 
NDB name  Hdg/Dist  Freq  Var  ID
ALLEN076/14.036501WJA .--- .-

Airport Services

Runway Information

Runway 18/36

Dimensions: 2600 x 75 ft. / 792 x 23 m
Surface: turf
RUNWAY 18  RUNWAY 36
Traffic pattern: leftleft

Airport Ownership and Management from official FAA records

Ownership: Privately-owned
Owner: CENTRAL MS LIGHT FLYERS INC.
380 FANNIN LANDING CIRCLE
BRANDON, MS 39047
Phone (601) 951-7762
ARPT PHYS ADS: HARRELL DRIVE, BRANDON MS 39047.
Manager: DEE GILLILAND
380 FANNIN LANDING CIRCLE
BRANDON, MS 39047
Phone 601-951-7762

Airport Operational Statistics

Aircraft based on the field: 14
Single engine airplanes: 11
Gliders airplanes: 1
Ultralights: 2
    

Additional Remarks

40 FT POWER LINE & TREES 1100 FT SOUTH OF RY.
ULTRALIGHT ACFT & HANG GLIDERS ON & INVOF ARPT.
FOR CD CTC JACKSON APCH AT 601-965-4625, WHEN APCH CLSD CTC MEMPHIS ARTCC AT 901-368-8453.

Instrument Procedures

There are no published instrument procedures at MS08.

Some nearby airports with instrument procedures:

KMBO - Bruce Campbell Field Airport (13 nm W)
KJAN - Jackson-Medgar Wiley Evers International Airport (15 nm SW)
KHKS - Hawkins Field Airport (21 nm SW)
KJVW - John Bell Williams Airport (30 nm W)
17M - Magee Municipal Airport (37 nm S)
 
Loc | Ops | Rwys | IFR | FBO | Links
Com | Nav | Svcs | Stats | Notes
Area around MS08 (Harrell Field Airport)
 
Road maps at: MapQuest Bing Google
 
Aerial photo
WARNING: Photo may not be current or correct
Aerial photo of MS08 (Harrell Field Airport)
Do you have a better or more recent aerial photo of Harrell Field Airport that you would like to share? If so, please send us your photo.

 
Sectional chart

 
Airport distance calculator
Flying to Harrell Field Airport? Find the distance to fly.

From to MS08

Sunrise and sunset
Times for 08-Aug-2020
 Local
(UTC-5)
 Zulu
(UTC)
Morning civil twilight05:5410:54
Sunrise06:2011:20
Sunset19:5000:50
Evening civil twilight20:1601:16

Current date and time
Zulu (UTC)  09-Aug-2020 03:13:04
Local (UTC-5)  08-Aug-2020 22:13:04
 
METAR
KMBO 
13nm W 
090255Z AUTO 00000KT 10SM CLR 25/22 A3011 RMK AO2 PWINO
KJAN 
15nm SW 
090254Z 00000KT 10SM CLR 26/22 A3010 RMK AO2 SLP189 T02560222 53012
KHKS 
20nm SW 
090253Z AUTO 00000KT 10SM CLR 27/22 A3011 RMK AO2 SLP187 T02670217 53012
TAF
KJAN 
15nm SW 
082018Z 0820/0918 VRB05KT P6SM VCTS SCT040CB OVC080 TEMPO 0820/0822 3SM TSRA FM082300 VRB04KT P6SM FEW250
NOTAMs
Click for the latest NOTAMs
NOTAMs are issued by the DoD/FAA and will open in a separate window not controlled by AirNav.

 

 
 

Would you like to see your business listed on this page?

 If your business provides an interesting product or service to pilots, flight crews, aircraft, or users of the Harrell Field Airport, you should consider listing it here.  To start the listing process, click on the button below
 
Add a business
 

Other Pages about Harrell Field Airport

Update a link
 
Copyright © AirNav, LLC. All rights reserved. Privacy Policy  Contact